Location: Civís
(42.4648°N, 1.4232°E)
Time: 18:29:18
(UTC+00:00)

Cosmos 1441 Rocket - Pass Details

Date: 19 November 2025
Orbit: 425 x 449 km, 81.1° (Epoch: 04 December)

Event Time Altitude Azimuth Distance (km) Brightness Sun altitude
Rises 05:38:25 0° 190° (S) 2,385 6.6 -13.3°
Reaches altitude 10° 05:40:27 10° 190° (S) 1,520 5.6 -12.9°
Maximum altitude 05:43:46 85° 277° (W) 434 2.7 -12.3°
Drops below altitude 10° 05:47:06 10° 9° (N) 1,527 5.5 -11.7°
Sets 05:49:09 0° 10° (N) 2,397 6.5 -11.4°
